Wind_Speed
22 28 31 31 27 24 22 21 21 20 20 20 21 21 20 21 18 13 14 14 14 15 12 13 13 11 7 7 7 8 8 9
22 26 32 33 31 28 25 24 24 25 27 27 26 24 26 25 20 17 14 14 14 15 16 15 13 9 9 7 7 7 10 12
23 26 31 34 33 33 31 29 26 27 29 28 27 26 25 22 20 20 17 16 16 18 18 15 13 12 9 6 7 11 15 17
26 27 30 32 35 35 33 29 29 29 29 28 29 26 27 25 26 23 21 18 19 20 19 17 15 11 7 5 10 18 20 21
29 30 31 33 33 33 32 31 31 32 32 32 32 32 30 30 26 25 23 23 22 22 21 17 14 11 6 9 17 22 19 17
34 36 35 34 33 32 31 32 33 33 33 34 32 33 33 30 28 27 26 25 24 23 20 18 16 13 12 17 15 15 21 16
36 35 34 37 36 35 34 35 34 35 36 33 35 34 33 33 31 29 28 28 26 22 22 20 17 16 16 12 24 25 12 17
38 37 36 37 37 38 36 34 26 21 25 34 35 35 34 35 32 28 30 30 29 26 24 23 20 17 13 19 18 11 13 12
45 44 40 39 39 37 35 34 34 20 24 34 38 36 36 34 33 28 29 29 29 29 25 22 19 13 16 7 15 10 11 14
29 37 43 40 37 36 36 36 36 30 24 23 32 33 34 29 30 30 29 31 30 29 26 22 19 15 12 16 9 8 18 17
17 22 31 36 35 33 31 32 30 30 25 22 24 27 24 27 31 29 30 30 32 31 27 23 18 14 11 11 8 19 15 13
9 14 16 20 24 25 25 25 26 25 25 22 19 20 22 27 28 30 30 32 34 31 27 23 17 17 18 10 11 15 13 12
5 7 9 11 15 18 21 23 23 22 17 18 20 21 24 25 24 25 27 27 33 30 25 20 17 14 11 6 7 11 13 12
7 9 9 10 13 18 21 20 21 18 19 18 19 21 25 27 24 24 22 26 29 30 25 23 20 18 14 8 16 10 14 13
7 10 10 11 13 14 15 16 19 21 20 21 22 24 27 25 20 21 24 27 29 27 27 21 17 17 12 12 24 13 19 20
4 4 4 4 5 7 10 15 16 17 18 19 20 20 19 19 22 23 24 25 26 24 23 23 21 18 12 20 21 19 22 25
6 5 4 3 1 2 4 7 9 10 12 14 16 18 19 21 22 22 21 21 23 24 22 21 17 12 30 30 25 20 24 25
18 16 13 11 8 6 4 3 4 7 9 12 15 18 19 20 21 22 21 23 25 23 21 20 26 34 30 29 19 23 26 28
19 17 14 11 8 6 5 5 6 7 7 9 12 13 13 14 16 17 19 22 24 23 30 29 32 28 29 26 20 27 29 29
Wind_Direction
200 198 195 195 196 198 202 206 206 202 199 198 203 208 209 211 210 215 230 228 230 231 225 213 212 219 231 272 301 328 342 343
218 212 209 210 211 212 210 211 208 207 204 204 207 210 210 209 209 218 227 228 223 217 211 213 218 226 250 278 326 349 350 347
221 219 216 216 216 218 219 216 212 211 211 212 213 217 220 224 217 221 221 217 215 216 214 218 227 241 253 303 351 356 345 344
223 221 217 219 221 222 223 220 218 217 217 216 222 222 227 216 215 219 218 219 219 217 219 224 233 238 264 321 340 347 335 325
227 226 226 224 223 224 225 224 223 223 225 225 229 230 228 226 224 224 223 220 217 219 223 227 230 240 267 305 323 326 320 315
229 227 226 227 227 227 227 230 230 230 232 235 237 238 238 236 227 223 221 219 219 223 228 232 239 251 273 303 322 325 322 301
236 236 235 234 232 230 229 230 230 230 235 239 239 239 238 233 231 227 229 225 224 227 232 236 247 260 272 311 328 308 303 300
237 236 238 239 237 232 229 230 226 236 259 255 243 241 239 238 238 247 242 232 229 237 237 242 250 258 280 306 314 292 295 292
241 242 241 240 240 237 231 225 207 213 247 248 244 241 243 243 245 252 253 244 238 232 231 239 248 265 293 303 299 291 306 297
242 243 242 240 238 238 239 235 221 225 245 246 247 245 250 245 247 249 241 240 237 233 242 243 252 269 285 298 278 298 305 298
237 238 238 239 239 241 239 239 238 248 254 252 247 247 242 241 247 247 242 239 232 235 241 238 250 258 267 269 264 313 298 277
257 245 247 245 240 240 240 238 232 240 246 245 239 240 244 246 248 247 246 236 234 238 238 238 248 274 270 246 317 316 283 264
227 238 232 229 232 233 236 238 237 238 238 240 242 247 244 244 249 255 250 239 234 236 234 247 245 237 237 260 309 295 272 265
203 204 216 218 218 220 227 230 235 244 249 247 250 250 249 248 254 251 245 238 236 230 230 234 232 240 230 254 314 278 269 275
238 221 222 229 236 243 241 235 244 255 261 258 252 252 254 257 253 246 242 236 231 233 236 226 237 218 223 264 308 267 272 272
249 238 235 245 255 254 252 259 272 285 287 279 270 270 265 259 251 245 243 235 231 234 227 224 222 219 235 276 299 279 277 274
115 110 109 115 155 248 272 282 293 300 300 292 281 271 260 251 244 248 243 238 236 229 228 224 221 229 270 284 295 275 280 277
101 98 96 93 87 75 57 359 320 308 296 283 275 270 263 258 253 248 245 231 228 223 215 221 245 270 281 284 274 280 282 279
100 96 91 85 75 56 26 354 333 321 303 282 275 275 272 264 254 246 237 231 219 235 252 257 274 281 277 282 283 285 283 283
Height
1531 1534 1537 1539 1541 1545 1548 1550 1552 1554 1557 1560 1564 1566 1568 1571 1573 1574 1577 1577 1578 1580 1581 1583 1583 1584 1584 1586 1585 1585 1583 1581
1528 1531 1534 1537 1539 1542 1544 1546 1549 1552 1555 1557 1560 1561 1565 1568 1570 1572 1573 1574 1575 1577 1579 1581 1581 1582 1582 1582 1582 1581 1579 1577
1523 1526 1529 1532 1535 1538 1540 1544 1547 1550 1552 1555 1557 1561 1562 1565 1566 1569 1570 1570 1572 1574 1575 1577 1578 1579 1580 1579 1578 1577 1576 1573
1518 1520 1523 1526 1529 1531 1536 1541 1545 1547 1549 1552 1555 1558 1558 1560 1562 1563 1565 1567 1569 1571 1572 1573 1575 1576 1576 1575 1574 1571 1573 1570
1515 1517 1519 1520 1523 1528 1533 1536 1539 1543 1546 1548 1549 1552 1552 1554 1558 1560 1562 1563 1565 1567 1569 1569 1569 1570 1571 1571 1571 1569 1568 1569
1508 1510 1514 1517 1522 1525 1529 1531 1536 1539 1542 1544 1546 1548 1549 1551 1554 1556 1558 1560 1562 1563 1564 1564 1564 1565 1565 1564 1567 1567 1565 1566
1501 1505 1510 1512 1517 1521 1525 1527 1531 1534 1537 1539 1541 1542 1542 1546 1549 1551 1553 1555 1556 1558 1559 1560 1560 1559 1559 1561 1560 1560 1560 1560
1493 1497 1499 1503 1507 1513 1518 1522 1528 1532 1534 1534 1535 1536 1538 1541 1544 1545 1547 1549 1550 1552 1554 1554 1554 1555 1556 1556 1555 1555 1554 1554
1485 1487 1491 1495 1499 1504 1510 1515 1519 1522 1525 1527 1528 1531 1533 1536 1538 1540 1541 1544 1546 1547 1549 1551 1551 1552 1552 1551 1552 1550 1549 1549
1477 1480 1484 1490 1494 1497 1502 1507 1512 1516 1519 1521 1523 1526 1529 1530 1533 1535 1536 1538 1540 1543 1545 1546 1547 1547 1546 1545 1547 1546 1545 1544
1473 1475 1479 1484 1489 1494 1500 1504 1508 1510 1514 1516 1518 1521 1523 1525 1527 1528 1529 1533 1536 1538 1539 1540 1541 1541 1541 1542 1542 1541 1540 1540
1471 1473 1476 1480 1486 1490 1494 1499 1503 1506 1510 1511 1514 1515 1517 1520 1522 1522 1524 1527 1530 1532 1534 1535 1536 1536 1536 1537 1538 1537 1537 1537
1470 1472 1474 1477 1481 1486 1490 1494 1498 1503 1506 1507 1509 1511 1512 1514 1515 1517 1519 1522 1525 1527 1529 1532 1531 1532 1533 1532 1532 1532 1532 1531
1469 1471 1474 1476 1479 1483 1486 1490 1494 1500 1501 1503 1505 1506 1508 1509 1510 1512 1514 1515 1519 1521 1522 1524 1522 1525 1528 1527 1526 1525 1525 1525
1467 1469 1472 1475 1478 1481 1485 1488 1491 1493 1495 1497 1498 1500 1502 1504 1506 1507 1509 1511 1514 1515 1518 1518 1521 1522 1522 1523 1521 1521 1521 1521
1464 1466 1469 1472 1475 1478 1482 1484 1487 1489 1491 1492 1494 1496 1498 1500 1502 1505 1508 1510 1512 1514 1513 1514 1516 1517 1517 1515 1515 1515 1514 1514
1462 1465 1467 1469 1473 1475 1478 1480 1482 1484 1485 1487 1489 1492 1494 1496 1499 1502 1505 1508 1511 1510 1515 1515 1514 1513 1511 1512 1511 1509 1507 1506
1463 1465 1468 1470 1472 1475 1477 1479 1480 1481 1482 1484 1486 1489 1491 1494 1496 1498 1501 1501 1503 1506 1504 1505 1508 1507 1507 1506 1505 1503 1501 1499
1465 1467 1469 1472 1474 1476 1477 1478 1479 1480 1481 1483 1484 1486 1488 1490 1492 1494 1496 1498 1499 1501 1502 1504 1504 1503 1502 1500 1498 1496 1493 1491